Weather History for Grove, OK

Change the Weather History Date:

Saturday, December 1, 2012

  Actual Average (KSLG) Record (KSLG)
Temperature  
Mean Temperature 64 °F -  
Max Temperature 73 °F 51 °F 69 °F (2012)
Min Temperature 55 °F 34 °F 15 °F (2006)
Degree Days  
Heating Degree Days 1    
Growing Degree Days 14 (Base 50)    
Moisture  
Dew Point 59 °F    
Average Humidity 79    
Maximum Humidity 100    
Minimum Humidity 61    
Precipitation  
Precipitation 0.00 in - - ()
Sea Level Pressure  
Sea Level Pressure 29.94 in    
Wind  
Wind Speed 12 mph (South)    
Max Wind Speed 25 mph    
Max Gust Speed 34 mph    
Visibility 10 miles    
Events      
Averages and records for this station are not official NWS values.
T = Trace of Precipitation, MM = Missing Value Source: NWS Daily Summary

Daily Weather History Graph

Daily Weather History Graph

Search for Another Location

Airport:

Trip Planner

Search our weather history database for the weather conditions in past years. The results will help you decide how hot, cold, wet, or windy it might be!

Date:

Astronomy

Dec. 01, 2012 Rise Set
Actual Time 7:13 AM CST 5:03 PM CST
Civil Twilight 6:44 AM CST 5:31 PM CST
Nautical Twilight 6:12 AM CST 6:03 PM CST
Astronomical Twilight 5:41 AM CST 6:34 PM CST
Moon 7:52 PM CST (12/1) 9:27 AM CST (12/1)
Length of Visible Light 10h 47m
Length of Day
9h 50m
Waning Gibbous, 91% of the Moon is Illuminated
Dec 1
Waning Gibbous
Dec 6
Last Quarter
Dec 13
New
Dec 19
First Quarter
Dec 28
Full

Hourly Weather History & Observations

Time (CST) Temp. Dew Point Humidity Pressure Visibility Wind Dir Wind Speed Gust Speed Precip Events Conditions
12:15 AM 55.4 °F 55.4 °F 100% 30.05 in 7.0 mi SE 4.6 mph - N/A   Scattered Clouds
12:35 AM 55.4 °F 55.4 °F 100% 30.05 in 7.0 mi SE 4.6 mph - N/A   Clear
12:55 AM 55.4 °F 55.4 °F 100% 30.05 in 7.0 mi SE 5.8 mph - N/A   Scattered Clouds
1:15 AM 55.4 °F 55.4 °F 100% 30.04 in 7.0 mi SE 5.8 mph - N/A   Mostly Cloudy
1:35 AM 57.2 °F 57.2 °F 100% 30.03 in 7.0 mi SSE 8.1 mph - N/A   Scattered Clouds
1:55 AM 57.2 °F 57.2 °F 100% 30.03 in 7.0 mi SSE 6.9 mph - N/A   Scattered Clouds
2:15 AM 57.2 °F 57.2 °F 100% 30.03 in 7.0 mi SE 8.1 mph - N/A   Clear
2:35 AM 59.0 °F 59.0 °F 100% 30.02 in 7.0 mi SSE 8.1 mph - N/A   Clear
2:55 AM 59.0 °F 59.0 °F 100% 30.02 in 7.0 mi SSE 9.2 mph - N/A   Clear
3:15 AM 59.0 °F 59.0 °F 100% 30.01 in 7.0 mi SSE 9.2 mph 17.3 mph N/A   Clear
3:35 AM 59.0 °F 59.0 °F 100% 30.01 in 7.0 mi SSE 10.4 mph 19.6 mph N/A   Clear
3:55 AM 59.0 °F 59.0 °F 100% 30.01 in 7.0 mi South 9.2 mph - N/A   Scattered Clouds
4:15 AM 60.8 °F 60.8 °F 100% 30.00 in 7.0 mi South 6.9 mph - N/A   Mostly Cloudy
4:35 AM 60.8 °F 60.8 °F 100% 30.00 in 10.0 mi SSE 9.2 mph 16.1 mph N/A   Overcast
4:55 AM 62.6 °F 60.8 °F 94% 30.00 in 10.0 mi South 10.4 mph 17.3 mph N/A   Overcast
5:15 AM 62.6 °F 60.8 °F 94% 29.99 in 10.0 mi SSE 12.7 mph 17.3 mph N/A   Overcast
5:35 AM 62.6 °F 59.0 °F 88% 29.99 in 10.0 mi South 10.4 mph - N/A   Overcast
5:55 AM 62.6 °F 59.0 °F 88% 29.99 in 10.0 mi South 13.8 mph 21.9 mph N/A   Overcast
6:15 AM 62.6 °F 59.0 °F 88% 29.98 in 10.0 mi South 16.1 mph 20.7 mph N/A   Overcast
6:35 AM 62.6 °F 59.0 °F 88% 29.98 in 10.0 mi South 15.0 mph 20.7 mph N/A   Overcast
6:55 AM 64.4 °F 59.0 °F 83% 29.98 in 10.0 mi South 13.8 mph - N/A   Overcast
7:15 AM 64.4 °F 59.0 °F 83% 29.97 in 10.0 mi South 17.3 mph 23.0 mph N/A   Overcast
7:35 AM 64.4 °F 59.0 °F 83% 29.97 in 10.0 mi South 16.1 mph 27.6 mph N/A   Overcast
7:55 AM 64.4 °F 59.0 °F 83% 29.97 in 10.0 mi South 18.4 mph 25.3 mph N/A   Overcast
8:15 AM 64.4 °F 59.0 °F 83% 29.97 in 10.0 mi South 16.1 mph 24.2 mph N/A   Overcast
8:35 AM 64.4 °F 59.0 °F 83% 29.98 in 10.0 mi South 19.6 mph 25.3 mph N/A   Overcast
8:55 AM 64.4 °F 60.8 °F 88% 29.98 in 10.0 mi South 15.0 mph 23.0 mph N/A   Overcast
9:15 AM 64.4 °F 59.0 °F 83% 29.97 in 10.0 mi South 16.1 mph 20.7 mph N/A   Overcast
9:35 AM 66.2 °F 60.8 °F 83% 29.96 in 10.0 mi South 20.7 mph 25.3 mph N/A   Overcast
9:55 AM 68.0 °F 59.0 °F 73% 29.96 in 10.0 mi South 24.2 mph 29.9 mph N/A   Mostly Cloudy
10:15 AM 68.0 °F 60.8 °F 78% 29.95 in 10.0 mi South 21.9 mph 31.1 mph N/A   Scattered Clouds
10:35 AM 69.8 °F 60.8 °F 73% 29.95 in 10.0 mi South 23.0 mph 29.9 mph N/A   Mostly Cloudy
10:55 AM 69.8 °F 59.0 °F 68% 29.94 in 10.0 mi South 19.6 mph 28.8 mph N/A   Overcast
11:15 AM 69.8 °F 59.0 °F 68% 29.93 in 10.0 mi South 18.4 mph 32.2 mph N/A   Overcast
11:35 AM 69.8 °F 59.0 °F 68% 29.92 in 10.0 mi South 21.9 mph 28.8 mph N/A   Overcast
11:55 AM 69.8 °F 59.0 °F 68% 29.91 in 10.0 mi South 19.6 mph 29.9 mph N/A   Overcast
12:15 PM 71.6 °F 60.8 °F 69% 29.89 in 10.0 mi South 20.7 mph 27.6 mph N/A   Mostly Cloudy
12:35 PM 71.6 °F 59.0 °F 64% 29.88 in 10.0 mi South 21.9 mph 28.8 mph N/A   Overcast
12:55 PM 71.6 °F 59.0 °F 64% 29.88 in 10.0 mi South 25.3 mph 32.2 mph N/A   Overcast
1:15 PM 71.6 °F 59.0 °F 64% 29.88 in 10.0 mi South 23.0 mph 28.8 mph N/A   Overcast
1:35 PM 71.6 °F 59.0 °F 64% 29.88 in 10.0 mi South 20.7 mph 28.8 mph N/A   Overcast
1:55 PM 71.6 °F 59.0 °F 64% 29.88 in 10.0 mi South 21.9 mph 29.9 mph N/A   Overcast
2:15 PM 71.6 °F 59.0 °F 64% 29.86 in 10.0 mi South 25.3 mph 28.8 mph N/A   Overcast
2:35 PM 73.4 °F 59.0 °F 61% 29.85 in 10.0 mi South 20.7 mph 28.8 mph N/A   Mostly Cloudy
2:55 PM 73.4 °F 59.0 °F 61% 29.85 in 10.0 mi South 19.6 mph 32.2 mph N/A   Scattered Clouds
3:15 PM 73.4 °F 59.0 °F 61% 29.84 in 10.0 mi South 19.6 mph 28.8 mph N/A   Clear
3:35 PM 73.4 °F 59.0 °F 61% 29.85 in 10.0 mi South 18.4 mph 31.1 mph N/A   Clear
3:55 PM 73.4 °F 59.0 °F 61% 29.84 in 10.0 mi South 18.4 mph 34.5 mph N/A   Clear
4:15 PM 71.6 °F 59.0 °F 64% 29.85 in 10.0 mi South 21.9 mph 27.6 mph N/A   Clear
4:35 PM 71.6 °F 59.0 °F 64% 29.86 in 10.0 mi South 15.0 mph 24.2 mph N/A   Clear
4:55 PM 71.6 °F 59.0 °F 64% 29.87 in 10.0 mi South 12.7 mph 19.6 mph N/A   Scattered Clouds
5:15 PM 71.6 °F 59.0 °F 64% 29.86 in 10.0 mi South 17.3 mph 23.0 mph N/A   Scattered Clouds
5:35 PM 69.8 °F 59.0 °F 68% 29.87 in 10.0 mi South 15.0 mph 21.9 mph N/A   Clear
5:55 PM 69.8 °F 59.0 °F 68% 29.88 in 10.0 mi South 12.7 mph 18.4 mph N/A   Clear
6:15 PM 69.8 °F 59.0 °F 68% 29.89 in 10.0 mi South 9.2 mph 17.3 mph N/A   Clear
6:35 PM 69.8 °F 59.0 °F 68% 29.90 in 10.0 mi South 6.9 mph - N/A   Scattered Clouds
6:55 PM 69.8 °F 60.8 °F 73% 29.91 in 10.0 mi South 8.1 mph - N/A   Mostly Cloudy
7:15 PM 69.8 °F 60.8 °F 73% 29.91 in 10.0 mi South 6.9 mph - N/A   Mostly Cloudy
7:55 PM 69.8 °F 60.8 °F 73% 29.92 in 10.0 mi South 8.1 mph - N/A   Mostly Cloudy
8:15 PM 69.8 °F 60.8 °F 73% 29.93 in 10.0 mi South 8.1 mph - N/A   Overcast
8:35 PM 69.8 °F 60.8 °F 73% 29.93 in 10.0 mi South 8.1 mph - N/A   Mostly Cloudy
8:55 PM 68.0 °F 60.8 °F 78% 29.93 in 10.0 mi South 9.2 mph 16.1 mph N/A   Scattered Clouds
9:15 PM 68.0 °F 60.8 °F 78% 29.93 in 10.0 mi South 11.5 mph 16.1 mph N/A   Scattered Clouds
9:35 PM 69.8 °F 60.8 °F 73% 29.93 in 10.0 mi South 12.7 mph 17.3 mph N/A   Scattered Clouds
9:55 PM 69.8 °F 60.8 °F 73% 29.93 in 10.0 mi South 12.7 mph 17.3 mph N/A   Scattered Clouds
10:15 PM 68.0 °F 60.8 °F 78% 29.93 in 10.0 mi South 10.4 mph 18.4 mph N/A   Clear
10:35 PM 68.0 °F 60.8 °F 78% 29.94 in 10.0 mi South 9.2 mph 19.6 mph N/A   Clear
10:55 PM 68.0 °F 60.8 °F 78% 29.94 in 10.0 mi South 11.5 mph 17.3 mph N/A   Clear
11:15 PM 68.0 °F 60.8 °F 78% 29.94 in 10.0 mi South 10.4 mph - N/A   Clear
11:35 PM 68.0 °F 60.8 °F 78% 29.94 in 10.0 mi South 11.5 mph 16.1 mph N/A   Clear
11:55 PM 68.0 °F 60.8 °F 78% 29.94 in 10.0 mi South 10.4 mph - N/A   Clear